Regional Weather Roundup
Issued by NWS

Home | Current Version | Previous Version | Graphics & Text | Print | Product List | Glossary On
Versions: 1 2 3 4 5 6 7 8 9 10 11 12 13 14 15 16 17 18 19 20 21 22 23 24 25 26 27 28 29 30 31 32 33 34 35 36 37 38 39 40 41 42 43 44 45 46 47 48 49 50
881
ASUS43 KMPX 211810
RWRMN
WEATHER ROUNDUP FOR MINNESOTA
NATIONAL WEATHER SERVICE TWIN CITIES/CHANHASSEN MN
100 PM CDT THU MAY 21 2015


NOTE: "FAIR" INDICATES FEW OR NO CLOUDS BELOW 12,000 FEET WITH NO
SIGNIFICANT WEATHER AND/OR OBSTRUCTIONS TO VISIBILITY. N/A MEANS
CURRENT SKY AND/OR WEATHER CONDITIONS ARE NOT AVAILABLE.

MNZ060>063-068>070-211900-
   Twin Cities Metro

CITY           SKY/WX    TMP DP  RH WIND       PRES   REMARKS
TWIN CITIES    SUNNY     70  36  28 NW14G25   30.02S
6HR MIN TEMP:  47; 6HR MAX TEMP:  70;

ST PAUL        SUNNY     70  38  31 NW10      30.01F
CRYSTAL        SUNNY     70  32  24 N15       30.01S
BLAINE         SUNNY     70  34  26 NW12G18   30.01
LAKEVILLE      SUNNY     66  39  37 W13G21    30.02F
EDEN PRAIRIE   SUNNY     68  35  29 NW16      30.02S
6HR MIN TEMP:  44; 6HR MAX TEMP:  69;

SOUTH ST PAUL  SUNNY     69  37  30 NW16      30.01S
LAKE ELMO      FAIR      68  43  40 NW9       30.02S
$$
MNZ001>005-007-008-013>017-022>024-027-028-211900-
   Northwest Minnesota

CITY           SKY/WX    TMP DP  RH WIND       PRES   REMARKS
BEMIDJI        SUNNY     61  32  33 N8        30.11F
HALLOCK        SUNNY     64  32  29 N7        30.15S
ROSEAU         SUNNY     63  36  36 N15G25    30.13S
WARROAD        SUNNY     55  36  47 E10       30.14S
THIEF RVR FALL SUNNY     63  30  29 N13G18    30.14S
CROOKSTON      SUNNY     64  34  32 NW7       30.14F
FOSSTON        SUNNY     63  28  27 N7G18     30.13S
DETROIT LAKES  SUNNY     63  32  31 NW18      30.13F
MOORHEAD       SUNNY     63  37  39 NW9       30.14F
PARK RAPIDS    SUNNY     65  29  25 N10       30.09S
MAHNOMEN       FAIR      63  32  32 N15G21    30.12S
$$
MNZ006-009>011-018-025>026-211900-
   North Central Minnesota

CITY           SKY/WX    TMP DP  RH WIND       PRES   REMARKS
BAUDETTE       SUNNY     59  31  34 N14       30.12S
FLAG ISLAND    SUNNY     55  34  44 N10       30.12S
INTL FALLS     SUNNY     59  31  34 NW8       30.08S
6HR MIN TEMP:  45; 6HR MAX TEMP:  60;

WASKISH        SUNNY     61  34  36 NW12G18   30.11S
BIG FORK       SUNNY     64  28  25 N12G20    30.07S
LONGVILLE      SUNNY     64  28  25 N6        30.08S
GRAND RAPIDS   SUNNY     61  30  31 NW13G22   30.06S
CRANE LAKE     SUNNY     57  27  30 N8        30.07S
COOK           SUNNY     61  30  31 W14G22    30.05S
WALKER         FAIR      62  31  31 N9G16     30.09S
$$
MNZ012-019>021-037-211900-
   Northeast Minnesota

CITY           SKY/WX    TMP DP  RH WIND       PRES   REMARKS
DULUTH         SUNNY     61  35  37 SE7       30.01F
6HR MIN TEMP:  50; 6HR MAX TEMP:  61;

ELY            SUNNY     59  25  27 NW13G21   30.03S
HIBBING        SUNNY     64  30  27 NW15G25   30.04S
EVELETH        SUNNY     61  28  29 N16G24    30.04F
DULUTH HARBOR  SUNNY     54  36  50 N5        30.04S
TWO HARBORS    SUNNY     61  37  41 SE3       30.00F
SILVER BAY     SUNNY     57  30  35 SE5       30.00S
GRAND MARAIS     N/A     48  35  60 SW9       30.01S
G MARAIS ARPRT SUNNY     57  25  28 N15G24    30.00S
$$
MNZ029>031-032-039>041-046>048-054>057-064-211900-
   West Central Minnesota

CITY           SKY/WX    TMP DP  RH WIND       PRES   REMARKS
FERGUS FALLS   SUNNY     64  36  34 N9G17     30.13S
WHEATON        SUNNY     64  37  36 NW12G18   30.15S
MORRIS         SUNNY     70  34  26 NW17G23   30.11S
ALEXANDRIA     SUNNY     66  33  29 NW14G21   30.11S
ELBOW LAKE     FAIR      64  37  37 NW10G17   30.11F
WADENA         SUNNY     64  34  32 N12       30.09S
GLENWOOD       SUNNY     66  36  32 NW12G23   30.10S
APPLETON       SUNNY     70  36  28 NW16      30.12S
BENSON         SUNNY     68  34  28 N13G21    30.10F
ORTONVILLE     SUNNY     68  27  21 N15G21    30.13S
MADISON        SUNNY     68  32  26 N16G26    30.13S
WILLMAR        FAIR      68  39  34 N13G24    30.10S
$$
MNZ033>034-036-042>043-049>051-058-059-211900-
   Central Minnesota

CITY           SKY/WX    TMP DP  RH WIND       PRES   REMARKS
ST CLOUD       SUNNY     68  37  32 N12G22    30.05R
6HR MIN TEMP:  48; 6HR MAX TEMP:  68;

SAUK CENTRE    FAIR      66  36  33 NW17G23   30.09R
PAYNESVILLE    SUNNY     64  37  36 W13G20    30.08R
AITKIN         SUNNY     70  28  21 NW10      30.04S
PINE RIVER     SUNNY     63  36  36 N12G21    30.11S
BRAINERD       SUNNY     64  32  30 N15       30.07S
STAPLES        SUNNY     66  27  22 N12G20    30.08S
LONG PRAIRIE   FAIR      64  34  32 NW13G22   30.09R
LITTLE FALLS   SUNNY     66  32  28 NW9G20    30.06S
LITCHFIELD     SUNNY     70  39  32 N12G18    30.07S
BUFFALO        SUNNY     68  36  30 NW10G16   30.05S
MAPLE LAKE     SUNNY     69  39  34 N12       30.06R
$$
MNZ037-044-045-052-053-211900-
   East Central Minnesota

CITY           SKY/WX    TMP DP  RH WIND       PRES   REMARKS
PRINCETON      SUNNY     72  37  28 N15G21    30.03S
MORA           SUNNY     64  36  34 NW18G25     N/A
CAMBRIDGE      SUNNY     72  46  40 NW15G22   30.00S
RUSH CITY      SUNNY     69  37  30 NW5G17    30.01S
MOOSE LAKE     SUNNY     66  34  30 N13G21    30.01R
HINCKLEY       FAIR      68  41  37 N12G17    30.01S
CLOQUET        SUNNY     64  21  19 NW14G22   30.02S
MCGREGOR       SUNNY     63  32  31 N8G20     30.04F
$$
MNZ071>073-080-081-089-090-097-098-211900-
   Southwest Minnesota

CITY           SKY/WX    TMP DP  RH WIND       PRES   REMARKS
MONTEVIDEO     SUNNY     68  36  30 N15       30.12S
GRANITE FALLS  SUNNY     67  31  26 NW16G23   30.12F
CANBY          SUNNY     68  37  32 NW15G21   30.14S
MARSHALL       SUNNY     68  34  28 N22G30    30.11F
REDWOOD FALLS  SUNNY     68  31  25 NW21G30   30.09S
OLIVIA         SUNNY     68  36  30 NW16G24   30.08S
PIPESTONE      SUNNY     68  34  28 NW16G28   30.14F
WINDOM         SUNNY     70  36  28 NW17G29   30.11S
WORTHINGTON    SUNNY     70  36  28 NW23G32   30.12F
JACKSON        SUNNY     70  32  24 NW16G26   30.11F
TRACY          SUNNY     70  36  28 NW17G26   30.12F
SLAYTON        SUNNY     68  35  29 NW18G25   30.13F
$$
MNZ065>067-074>077-082>085-091>093-211900-
   South Central Minnesota

CITY           SKY/WX    TMP DP  RH WIND       PRES   REMARKS
MANKATO        SUNNY     68  30  24 NW21      30.05F
NEW ULM        SUNNY     70  28  21 NW17G30   30.07S
ST JAMES       SUNNY     72  30  21 W25G35    30.08F
FAIRMONT       SUNNY     72  34  25 NW17G26   30.08F
GLENCOE        SUNNY     69  34  27 NW14G21   30.05S
FARIBAULT      SUNNY     68  36  30 W20       30.04F
OWATONNA       SUNNY     68  32  26 NW18G28   30.04S
WASECA         SUNNY     70  36  28 NW18G26   30.06F
ALBERT LEA     SUNNY     70  34  26 NW18G26   30.05F
$$
MNZ078>079-086>088-094>096-211900-
   Southeast Minnesota

CITY           SKY/WX    TMP DP  RH WIND       PRES   REMARKS
ROCHESTER      SUNNY     71  40  32 W17G29    30.03F
6HR MIN TEMP:  44; 6HR MAX TEMP:  71;

RED WING       SUNNY     70  36  28 W10G20    30.00S
STANTON        SUNNY     68  38  33 W15G23    30.02S
DODGE CENTER   SUNNY     68  36  30 W18       30.03F
WINONA         SUNNY     72  36  26 W12G20    29.99F
AUSTIN         SUNNY     68  37  32 W18G24    30.04F
PRESTON        SUNNY     68  39  34 W16G22    30.04S
$$
ABBREVIATIONS USED IN REMARKS
   TC - TEMPERATURES IN CELSIUS
  WCI - WIND CHILL INDEX
   HX - HEAT INDEX
  VSB - VISIBILITY
$$



USA.gov is the U.S. government's official web portal to all federal, state and local government web resources and services.